Date String (YYYY-MM-DD hh:mm:ss) UTC,Instrument flags,Ambient pressure (hPa),Sample flow (lpm),Bypass flow (lpm),Sample temperature (°C),Ambient temperature (°C),ASC tube jacket temperature (°C),LED temperature (°C),Box temperature (°C),Sample RH (%),Span deviation,Mass concentration (μg/m³),Mass concentration (μg/m³),Mass concentration (μg/m³)
DateTimeUTC,F1_M11,P_M11,Q1_M11,Q2_M11,T1_M11,T2_M11,T3_M11,T4_M11,T5_M11,U1_M11,ZSPAN_M11,X0_M11,X2_M11,X1_M11
2022-12-20 03:00:00,,0829.0,5.04,0.00,22.0,21.3,00.0,30.7,23.9,04.3,0000.0,0010.38,0002.14,0001.21
2022-12-20 03:01:00,,0829.0,4.96,0.00,22.0,21.1,00.0,30.8,23.8,04.3,0000.0,0009.99,0002.18,0001.23
2022-12-20 03:02:00,,0829.0,5.03,0.00,22.0,20.9,00.0,30.8,23.8,04.3,0000.0,0010.11,0002.26,0001.23
2022-12-20 03:03:00,,0828.9,4.96,0.00,22.0,20.8,00.0,30.8,23.8,04.3,0000.0,0010.52,0002.34,0001.25
2022-12-20 03:04:00,,0828.7,5.04,0.00,22.0,20.6,00.0,30.8,23.7,04.3,0000.0,0011.23,0002.37,0001.26
2022-12-20 03:05:00,,0828.7,4.97,0.00,22.0,20.5,00.0,30.8,23.7,04.3,0000.0,0010.46,0002.33,0001.28
2022-12-20 03:06:00,,0829.0,5.01,0.00,21.9,20.5,00.0,30.8,23.7,04.2,0000.0,0009.97,0002.27,0001.29
2022-12-20 03:07:00,,0829.0,5.02,0.00,21.9,20.5,00.0,30.8,23.7,04.2,0000.0,0008.61,0002.22,0001.29
2022-12-20 03:08:00,,0829.0,4.95,0.00,21.9,20.5,00.0,30.8,23.6,04.1,0000.0,0008.17,0002.18,0001.28
2022-12-20 03:09:00,,0828.9,5.03,0.00,21.9,20.5,00.0,30.7,23.6,04.1,0000.0,0008.31,0002.11,0001.25
2022-12-20 03:10:00,,0828.7,5.01,0.00,21.9,20.4,00.0,30.7,23.6,04.2,0000.0,0008.52,0002.05,0001.24
2022-12-20 03:11:00,,0828.8,4.97,0.00,21.9,20.4,00.0,30.7,23.6,04.2,0000.0,0007.44,0001.93,0001.21
2022-12-20 03:12:00,,0829.2,5.03,0.00,21.9,20.4,00.0,30.7,23.6,04.2,0000.0,0007.16,0001.82,0001.18
2022-12-20 03:13:00,,0829.4,4.95,0.00,21.9,20.4,00.0,30.7,23.6,04.3,0000.0,0007.56,0001.72,0001.15
2022-12-20 03:14:00,,0829.3,5.03,0.00,21.9,20.4,00.0,30.7,23.6,04.3,0000.0,0007.31,0001.61,0001.13
2022-12-20 03:15:00,,0829.3,5.02,0.00,21.8,20.4,00.0,30.7,23.6,04.4,0000.0,0005.63,0001.55,0001.12
2022-12-20 03:16:00,,0828.9,4.95,0.00,21.8,20.4,00.0,30.7,23.6,04.4,0000.0,0005.29,0001.52,0001.11
2022-12-20 03:17:00,,0829.1,5.03,0.00,21.8,20.5,00.0,30.7,23.6,04.4,0000.0,0005.45,0001.56,0001.13
2022-12-20 03:18:00,,0829.2,4.97,0.00,21.9,21.4,00.0,30.6,23.8,04.3,0000.0,0006.11,0001.56,0001.13
2022-12-20 03:19:00,,0828.9,5.05,0.00,22.0,22.1,00.0,30.7,24.0,04.3,0000.0,0006.07,0001.53,0001.11
2022-12-20 03:20:00,,0828.9,4.96,0.00,22.1,21.9,00.0,30.7,24.1,04.3,0000.0,0006.56,0001.52,0001.10
2022-12-20 03:21:00,,0828.9,5.03,0.00,22.1,21.6,00.0,30.8,24.0,04.3,0000.0,0006.92,0001.48,0001.10
2022-12-20 03:22:00,,0828.8,4.96,0.00,22.1,21.3,00.0,30.8,23.9,04.2,0000.0,0007.02,0001.47,0001.11
2022-12-20 03:23:00,,0828.9,5.04,0.00,22.1,21.1,00.0,30.8,23.9,04.2,0000.0,0007.19,0001.55,0001.11
2022-12-20 03:24:00,,0828.9,4.98,0.00,22.1,21.0,00.0,30.8,23.9,04.1,0000.0,0006.94,0001.60,0001.12
2022-12-20 03:25:00,,0829.0,5.02,0.00,22.1,20.9,00.0,30.8,23.8,04.1,0000.0,0006.25,0001.60,0001.12
2022-12-20 03:26:00,,0829.1,5.03,0.00,22.1,20.8,00.0,30.8,23.8,04.2,0000.0,0005.83,0001.56,0001.11
2022-12-20 03:27:00,,0829.1,4.96,0.00,22.1,20.8,00.0,30.8,23.8,04.2,0000.0,0005.87,0001.56,0001.11
2022-12-20 03:28:00,,0829.0,5.03,0.00,22.0,20.7,00.0,30.8,23.8,04.2,0000.0,0006.26,0001.57,0001.10
2022-12-20 03:29:00,,0828.9,5.00,0.00,22.0,20.6,00.0,30.8,23.8,04.3,0000.0,0005.89,0001.59,0001.11
2022-12-20 03:30:00,,0828.8,4.99,0.00,22.0,20.4,00.0,30.8,23.7,04.3,0000.0,0005.91,0001.68,0001.17
2022-12-20 03:31:00,,0829.3,5.02,0.00,22.0,20.3,00.0,30.8,23.7,04.3,0000.0,0005.71,0001.76,0001.21
2022-12-20 03:32:00,,0829.4,4.96,0.00,21.9,20.3,00.0,30.8,23.6,04.3,0000.0,0004.18,0001.87,0001.25
2022-12-20 03:33:00,,0829.3,5.01,0.00,21.9,20.2,00.0,30.8,23.6,04.2,0000.0,0003.92,0001.92,0001.25
2022-12-20 03:34:00,,0829.0,5.03,0.00,21.9,20.3,00.0,30.8,23.6,04.2,0000.0,0003.92,0001.90,0001.26
2022-12-20 03:35:00,,0828.8,4.96,0.00,21.9,21.2,00.0,30.7,23.8,04.3,0000.0,0003.81,0001.94,0001.31
2022-12-20 03:36:00,,0828.9,5.04,0.00,22.1,22.1,00.0,30.7,24.0,04.3,0000.0,0003.93,0002.02,0001.35
2022-12-20 03:37:00,,0828.8,4.97,0.00,22.1,21.9,00.0,30.8,24.1,04.3,0000.0,0005.23,0002.10,0001.39
2022-12-20 03:38:00,,0828.9,5.04,0.00,22.1,21.6,00.0,30.8,24.0,04.3,0000.0,0006.92,0002.20,0001.42
2022-12-20 03:39:00,,0828.8,4.96,0.00,22.1,21.3,00.0,30.9,23.9,04.3,0000.0,0006.61,0002.24,0001.44
2022-12-20 03:40:00,,0828.9,5.03,0.00,22.1,21.1,00.0,30.9,23.9,04.3,0000.0,0006.64,0002.25,0001.45
2022-12-20 03:41:00,,0828.9,4.98,0.00,22.1,21.0,00.0,30.9,23.9,04.3,0000.0,0007.64,0002.19,0001.43
2022-12-20 03:42:00,,0828.9,5.01,0.00,22.1,20.9,00.0,30.9,23.9,04.3,0000.0,0008.21,0002.22,0001.43
2022-12-20 03:43:00,,0829.0,5.03,0.00,22.1,20.8,00.0,30.9,23.8,04.3,0000.0,0008.11,0002.12,0001.41
2022-12-20 03:44:00,,0829.0,4.95,0.00,22.1,20.8,00.0,30.9,23.8,04.3,0000.0,0008.09,0002.12,0001.43
2022-12-20 03:45:00,,0829.0,5.03,0.00,22.1,20.7,00.0,30.9,23.8,04.3,0000.0,0008.01,0002.07,0001.43
2022-12-20 03:46:00,,0829.1,5.02,0.00,22.0,20.7,00.0,30.9,23.8,04.3,0000.0,0007.99,0002.01,0001.40
2022-12-20 03:47:00,,0829.0,4.96,0.00,22.1,20.7,00.0,30.9,23.8,04.4,0000.0,0007.96,0001.96,0001.37
2022-12-20 03:48:00,,0829.0,5.03,0.00,22.1,20.7,00.0,30.9,23.8,04.4,0000.0,0007.63,0001.87,0001.34
2022-12-20 03:49:00,,0829.1,4.98,0.00,22.1,20.7,00.0,30.9,23.8,04.4,0000.0,0006.43,0001.84,0001.31
2022-12-20 03:50:00,,0829.1,5.00,0.00,22.1,20.7,00.0,30.9,23.8,04.4,0000.0,0006.25,0001.80,0001.27
2022-12-20 03:51:00,,0829.0,5.02,0.00,22.1,20.7,00.0,30.9,23.8,04.4,0000.0,0006.12,0001.74,0001.24
2022-12-20 03:52:00,,0828.9,4.98,0.00,22.1,20.8,00.0,30.8,23.8,04.4,0000.0,0004.72,0001.69,0001.21
2022-12-20 03:53:00,,0829.0,5.00,0.00,22.1,20.8,00.0,30.9,23.8,04.3,0000.0,0003.47,0001.57,0001.18
2022-12-20 03:54:00,,0828.9,5.02,0.00,22.0,20.8,00.0,30.8,23.8,04.3,0000.0,0003.38,0001.55,0001.17
2022-12-20 03:55:00,,0829.1,4.95,0.00,22.0,20.7,00.0,30.8,23.8,04.3,0000.0,0003.40,0001.53,0001.12
2022-12-20 03:56:00,,0829.1,5.01,0.00,22.0,20.7,00.0,30.9,23.8,04.4,0000.0,0003.47,0001.56,0001.12
2022-12-20 03:57:00,,0829.1,5.02,0.00,22.0,20.6,00.0,30.9,23.8,04.4,0000.0,0003.33,0001.53,0001.13
2022-12-20 03:58:00,,0829.1,4.95,0.00,22.0,20.6,00.0,30.8,23.7,04.4,0000.0,0003.27,0001.55,0001.14
2022-12-20 03:59:00,,0829.1,5.02,0.00,22.0,20.6,00.0,30.8,23.7,04.6,0000.0,0003.00,0001.59,0001.15
